Regional Weather Roundup
Issued by NWS

Home | Current Version | Previous Version | Graphics & Text | Print | Product List | Glossary Off
Versions: 1 2 3 4 5 6 7 8 9 10 11 12 13 14 15 16 17 18 19 20 21 22 23 24 25 26 27 28 29 30 31 32 33 34 35 36 37 38 39 40 41 42 43 44 45 46 47 48 49 50

251
ASUS43 KMKX 210020
RWRWI

WISCONSIN REGIONAL WEATHER ROUNDUP
NATIONAL WEATHER SERVICE MILWAUKEE/SULLIVAN WI
700 PM CDT FRI APR 20 2018

NOTE: "FAIR" INDICATES FEW OR NO CLOUDS BELOW 12,000 FEET WITH NO
SIGNIFICANT WEATHER AND/OR OBSTRUCTIONS TO VISIBILITY.

WIZ001-002-006>008-014>016-023>028-210100-
NORTHWEST WISCONSIN

CITY           SKY/WX    TMP DP  RH WIND       PRES   REMARKS
SUPERIOR ARPT  FAIR      55  23  28 SW7       30.38R
6HR MIN TEMP:  56; 6HR MAX TEMP:  59;

ASHLAND        FAIR      49  22  34 NE5       30.38S
6HR MIN TEMP:  45; 6HR MAX TEMP:  59;

HAYWARD        FAIR      50  24  36 S8        30.40R
6HR MIN TEMP:  50; 6HR MAX TEMP:  55;

SIREN          FAIR      51  18  27 SW5       30.41S
6HR MIN TEMP:  51; 6HR MAX TEMP:  54;

CUMBERLAND     FAIR      45  12  26 CALM      30.41S
RICE LAKE      FAIR      49  19  29 CALM      30.42S
6HR MIN TEMP:  48; 6HR MAX TEMP:  52;

CHETEK         FAIR      47  24  40 CALM      30.41R
6HR MIN TEMP:  47; 6HR MAX TEMP:  54;

LADYSMITH      FAIR      50  16  25 S5        30.42S
6HR MIN TEMP:  51; 6HR MAX TEMP:  55;

EAU CLAIRE     FAIR      51  18  27 W5        30.40S
6HR MIN TEMP:  50; 6HR MAX TEMP:  55;

MENOMONIE      FAIR      51  27  40 SE5       30.41S
6HR MIN TEMP:  51; 6HR MAX TEMP:  55;

NEW RICHMOND   FAIR      48  26  41 CALM      30.42S
6HR MIN TEMP:  48; 6HR MAX TEMP:  53;

OSCEOLA        FAIR      50  23  34 CALM      30.44S
6HR MIN TEMP:  50; 6HR MAX TEMP:  54;

$$

WIZ003>005-009-010-017-018-210100-
NORTH CENTRAL WISCONSIN

CITY           SKY/WX    TMP DP  RH WIND       PRES   REMARKS
MANITOWISH WTR FAIR      52  15  22 S6        30.36F
6HR MIN TEMP:  50; 6HR MAX TEMP:  55;

ARBOR VITAE    FAIR      52  13  21 SW3       30.36F
6HR MIN TEMP:  52; 6HR MAX TEMP:  57;

WOODRUFF       FAIR      52  13  21 SW3       30.36F
6HR MIN TEMP:  52; 6HR MAX TEMP:  57;

RHINELANDER    FAIR      51  17  26 SW10      30.38S
6HR MIN TEMP:  50; 6HR MAX TEMP:  56;

EAGLE RIVER    FAIR      48  13  24 W5        30.36S
6HR MIN TEMP:  50; 6HR MAX TEMP:  56;

LAND O LAKES   FAIR      54   4  13 SW3       30.38S
6HR MIN TEMP:  53; 6HR MAX TEMP:  58;

PHILLIPS       FAIR      50  18  28 SW5       30.38S
6HR MIN TEMP:  51; 6HR MAX TEMP:  53;

TOMAHAWK       FAIR      50  14  23 SW3       30.39S
6HR MIN TEMP:  50; 6HR MAX TEMP:  55;

MEDFORD        FAIR      46  20  35 S3        30.40S
6HR MIN TEMP:  46; 6HR MAX TEMP:  49;

MERRILL          N/A     48  17  28 SW3       30.40S
6HR MIN TEMP:  49; 6HR MAX TEMP:  54;

$$

WIZ029-030-035-036-043>047-210100-
CENTRAL WISCONSIN

CITY           SKY/WX    TMP DP  RH WIND       PRES   REMARKS
WAUSAU         FAIR      49  14  24 W6        30.39F
6HR MIN TEMP:  49; 6HR MAX TEMP:  53;

MOSINEE        PTCLDY    48  12  23 W3        30.42F
MARSHFIELD     FAIR      50  16  25 E5        30.39F
6HR MIN TEMP:  47; 6HR MAX TEMP:  54;

STEVENS POINT  FAIR      49  14  25 SE5       30.41F
6HR MIN TEMP:  49; 6HR MAX TEMP:  52;

WAUPACA        FAIR      52  16  24 SE3       30.42F
6HR MIN TEMP:  53; 6HR MAX TEMP:  58;

WAUTOMA        FAIR      53  18  25 SE8       30.41F
6HR MIN TEMP:  52; 6HR MAX TEMP:  57;

WISC RAPIDS    FAIR      54  10  17 SW5       30.41F
6HR MIN TEMP:  49; 6HR MAX TEMP:  55;

CAMP DOUGLAS   FAIR      50  17  26 CALM      30.41S
6HR MIN TEMP:  50; 6HR MAX TEMP:  57;

$$

WIZ011>013-019>022-031-037>040-048>050-210100-
NORTHEAST WISCONSIN

CITY           SKY/WX    TMP DP  RH WIND       PRES   REMARKS
ANTIGO         FAIR      45  19  36 SW6       30.39F
6HR MIN TEMP:  45; 6HR MAX TEMP:  51;

SHAWANO        FAIR      53  16  23 CALM      30.40S
6HR MIN TEMP:  54; 6HR MAX TEMP:  59;

OCONTO         FAIR      51  14  22 S5        30.41S
6HR MIN TEMP:  48; 6HR MAX TEMP:  53;

STURGEON BAY   FAIR      49  16  26 S7        30.43S
6HR MIN TEMP:  49; 6HR MAX TEMP:  52;

GREEN BAY      FAIR      49  20  31 SW7       30.42F
6HR MIN TEMP:  45; 6HR MAX TEMP:  50;

MANITOWOC      FAIR      48  22  35 S3        30.43F
6HR MIN TEMP:  45; 6HR MAX TEMP:  51;

APPLETON       PTCLDY    48  18  29 S7        30.41S
CLINTONVILLE   FAIR      49  15  25 S6        30.41F
6HR MIN TEMP:  50; 6HR MAX TEMP:  55;

OSHKOSH        FAIR      46  22  38 S6        30.43S
6HR MIN TEMP:  41; 6HR MAX TEMP:  50;

$$

WIZ032>034-041-042-053>061-210100-
SOUTHWEST WISCONSIN

CITY           SKY/WX    TMP DP  RH WIND       PRES   REMARKS
LA CROSSE      FAIR      53  26  35 SW7       30.41S
6HR MIN TEMP:  52; 6HR MAX TEMP:  57;

SPARTA         FAIR      52  15  22 W3        30.42S
6HR MIN TEMP:  51; 6HR MAX TEMP:  55;

VIROQUA        FAIR      47  26  43 N3        30.40S
6HR MIN TEMP:  47; 6HR MAX TEMP:  51;

BOSCOBEL       FAIR      57  24  28 CALM      30.40S
6HR MIN TEMP:  55; 6HR MAX TEMP:  60;

PRAIRIE DU CHI FAIR      56  25  30 CALM      30.40R
6HR MIN TEMP:  52; 6HR MAX TEMP:  57;

PLATTEVILLE    FAIR      55  29  36 S3        30.40R
6HR MIN TEMP:  53; 6HR MAX TEMP:  58;

$$

WIZ056-057-062-063-064-067-068-210100-
SOUTH CENTRAL WISCONSIN

CITY           SKY/WX    TMP DP  RH WIND       PRES   REMARKS
REEDSBURG      FAIR      51  19  27 CALM      30.41S
6HR MIN TEMP:  50; 6HR MAX TEMP:  54;

BARABOO/DELLS  FAIR      51  15  23 E3        30.41S
6HR MIN TEMP:  50; 6HR MAX TEMP:  56;

LONE ROCK      FAIR      56  28  34 E3        30.40S
6HR MIN TEMP:  54; 6HR MAX TEMP:  59;

MINERAL POINT  FAIR      55  19  24 CALM      30.39S
MADISON        MOCLDY    51  24  34 E8        30.41S
6HR MIN TEMP:  51; 6HR MAX TEMP:  58;

MIDDLETON      FAIR      53  26  34 E8        30.41F
6HR MIN TEMP:  53; 6HR MAX TEMP:  60;

WATERTOWN      FAIR      51  22  32 CALM      30.42F
6HR MIN TEMP:  49; 6HR MAX TEMP:  54;

MONROE         FAIR      54  25  32 SE3       30.40S
JANESVILLE     PTCLDY    57  12  17 CALM      30.40F
$$

WIZ051-052-058>065-066-070>072-210100-
SOUTHEAST WISCONSIN

CITY           SKY/WX    TMP DP  RH WIND       PRES   REMARKS
MILWAUKEE      MOCLDY    48  19  31 SE6       30.44S
6HR MIN TEMP:  48; 6HR MAX TEMP:  53;

WAUKESHA       CLEAR     52  16  24 CALM      30.43F
MILWAUKEE/TIMM CLEAR     50  12  22 E5        30.44F
RACINE         FAIR      48  12  23 SE6       30.45F
6HR MIN TEMP:  48; 6HR MAX TEMP:  53;

BURLINGTON     FAIR      54  18  23 CALM      30.42S
6HR MIN TEMP:  53; 6HR MAX TEMP:  58;

KENOSHA        FAIR      48  15  26 SE6       30.43F
6HR MIN TEMP:  48; 6HR MAX TEMP:  58;

FOND DU LAC    FAIR      50  13  22 CALM      30.43S
6HR MIN TEMP:  46; 6HR MAX TEMP:  52;

SHEBOYGAN      FAIR      49  28  44 S6        30.43F
6HR MIN TEMP:  49; 6HR MAX TEMP:  51;

WEST BEND      FAIR      52  10  19 CALM      30.43S
JUNEAU         FAIR      50  14  24 CALM      30.44S
6HR MIN TEMP:  45; 6HR MAX TEMP:  52;

$$

LSZ147-162-210100-
LAKE SUPERIOR

STATION/POSITION TIME  TEMP    WIND        PRES    WAVE
                       AIR SEA DIR/SP/G            HT/PER
                 (UTC) (F)     (DEG/KT/KT) (MB)    (FT/S)
DEVILS ISLAND    0000   45      40/  5/  7 1029.5R
SAXON HARBOR     2340   43     290/  2/  3 1028.1S
$$

LMZ867-665-643>646-210100-
LAKE MICHIGAN

STATION/POSITION TIME  TEMP    WIND        PRES    W



USA.gov is the U.S. government's official web portal to all federal, state and local government web resources and services.